Location: Waco, TX
(31.5480°N, 97.1670°W)
Time: 22:26:28
(UTC-05:00)

ISS - Pass Details

Date: 21 May 2017
Orbit: 401 x 408 km, 51.6° (Epoch: 24 June)

Event Time Altitude Azimuth Distance (km) Brightness Sun altitude
Rises 00:21:15 0° 270° (W) 2,329 - -36.0°
Reaches altitude 10° 00:24:23 10° 302° (WNW) 1,470 - -36.2°
Maximum altitude 00:25:47 12° 328° (NNW) 1,344 - -36.3°
Drops below altitude 10° 00:27:12 10° 353° (N) 1,470 - -36.4°
Sets 00:30:24 0° 26° (NNE) 2,348 - -36.6°
